[[{"header":{"parameterUnit":"m.s-1","parameterCategory":1,"la1":30.2992,"la2":30.254,"lo1":-89.0895,"lo2":-89.0443,"dy":0.0025,"dx":0.0025,"nx":19,"ny":19,"refTime":"2026-04-04T21:00:00:Z","depth":0,"parameterNumber":2,"parameterNumberName":"U-component_of_WINDS"},"data":[0,0,0,-0.9015,-0.9016,-0.9097,-0.9097,-0.9201,-0.9202,0,0,0,0,0,0,0,0,0,0,0,-0.8992,-0.8993,-0.9014,-0.9017,-0.9097,-0.9097,-0.9201,-0.9202,0,0,0,0,0,0,0,0,0,0,0,-0.8992,-0.8993,-0.8994,-0.9017,-0.9097,-0.9097,-0.92,-0.9139,0,0,0,0,0,0,0,0,0,0,-0.9061,-0.9042,-0.8993,-0.8994,-0.9017,-0.9097,-0.9097,-0.9136,-0.9143,-0.9165,0,-0.9186,0,-0.9195,-0.9209,-0.9209,0,0,0,-0.9016,-0.9036,-0.9057,-0.8994,-0.9018,-0.9096,-0.906,-0.914,-0.9148,-0.9174,-0.9187,-0.9191,-0.9197,-0.921,-0.921,-0.9341,-0.9342,0,0,-0.9011,-0.9007,-0.9051,-0.9062,-0.905,-0.9058,-0.9063,-0.9145,-0.9158,-0.9187,-0.9193,-0.9199,-0.921,-0.9211,-0.934,-0.9341,0,0,0,-0.8999,-0.9004,-0.9023,-0.9058,-0.9072,-0.906,-0.9066,-0.9155,-0.9161,-0.9194,-0.92,-0.9211,-0.9212,-0.934,-0.9341,-0.9371,0,0,0,-0.8996,-0.8997,-0.9021,-0.9019,-0.907,-0.9115,-0.9074,-0.9155,-0.9165,-0.9199,-0.9211,-0.9213,-0.9339,-0.934,-0.9368,-0.9386,0,0,0,-0.8986,-0.8996,-0.9008,-0.9019,-0.9053,-0.9113,-0.9124,-0.9157,-0.9168,-0.9209,-0.9213,-0.9339,-0.934,-0.9366,-0.9383,-0.942,0,0,0,-0.8975,-0.9034,-0.9009,-0.9076,-0.9053,-0.9131,-0.9124,-0.9182,-0.9221,-0.9211,-0.9339,-0.9341,-0.9366,-0.938,-0.9418,-0.9452,-0.9466,0,0,-0.9047,-0.9042,-0.9082,-0.9062,-0.9144,-0.9119,-0.9205,-0.9244,-0.925,-0.931,-0.9314,-0.9369,-0.9382,-0.942,-0.954,-0.9551,0,0,0,-0.9104,-0.9132,-0.9155,-0.9191,-0.9222,-0.925,-0.9276,-0.929,-0.9341,-0.9281,-0.9392,-0.94,-0.9422,-0.9439,-0.9448,-0.9467,-0.9348,-0.9348,-0.9347,-0.9201,-0.9207,-0.9273,-0.9288,-0.9323,-0.9349,-0.9378,-0.9401,-0.9396,-0.9422,-0.9441,-0.9514,-0.9533,-0.954,-0.956,-0.9458,-0.9458,-0.9458,-0.9458,-0.9308,-0.9351,-0.9342,-0.9403,-0.9408,-0.9459,-0.9485,-0.948,-0.9528,-0.95,-0.952,-0.9491,-0.9552,-0.9569,-0.9461,-0.946,-0.946,-0.946,-0.946,-0.9375,-0.9396,-0.9411,-0.9464,-0.9504,-0.9516,-0.9563,-0.9565,-0.9568,-0.9587,-0.9607,-0.9607,-0.9608,-0.9596,-0.9596,-0.9597,-0.9597,-0.9597,-0.9597,-0.9438,-0.9454,-0.9494,-0.953,-0.9554,-0.9585,-0.9609,-0.9632,-0.9658,-0.9656,-0.9656,-0.9649,-0.9556,-0.9533,-0.9601,-0.9601,-0.96,-0.96,-0.9599,-0.9547,-0.9523,-0.9584,-0.9607,-0.965,-0.9689,-0.969,-0.9737,-0.9756,-0.9779,-0.9766,-0.9696,-0.9692,-0.9685,-0.9666,-0.9764,-0.9764,-0.9764,-0.9764,-0.9605,-0.9602,-0.9665,-0.9702,-0.9738,-0.9745,-0.9813,-0.9832,-0.9848,-0.986,-0.9845,-0.982,-0.9812,-0.9813,-0.9803,-0.9785,-0.9912,-0.9912,-0.9912,-0.9673,-0.9673,-0.9732,-0.9747,-0.978,-0.9808,-0.9872,-0.9914,-0.9927,-0.9918,-0.9869,-0.9863,-0.9822,-0.9809,-0.9802,-0.9786,-0.9754,0,0]},{"header":{"parameterUnit":"m.s-1","parameterCategory":1,"la1":30.2992,"la2":30.254,"lo1":-89.0895,"lo2":-89.0443,"dy":0.0025,"dx":0.0025,"nx":19,"ny":19,"refTime":"2026-04-04T21:00:00:Z","depth":0,"parameterNumber":3,"parameterNumberName":"V-component_of_WINDS"},"data":[0,0,0,-5.3074,-5.3076,-5.3182,-5.3182,-5.3327,-5.3329,0,0,0,0,0,0,0,0,0,0,0,-5.3051,-5.3053,-5.3074,-5.3077,-5.3182,-5.3182,-5.3327,-5.3329,0,0,0,0,0,0,0,0,0,0,0,-5.3051,-5.3052,-5.3054,-5.3077,-5.3182,-5.3183,-5.3327,-5.3243,0,0,0,0,0,0,0,0,0,0,-5.3138,-5.3126,-5.3052,-5.3054,-5.3078,-5.3182,-5.3183,-5.3239,-5.3248,-5.3284,0,-5.3321,0,-5.3328,-5.3339,-5.334,0,0,0,-5.3069,-5.3119,-5.314,-5.3054,-5.3079,-5.3182,-5.3132,-5.3244,-5.3255,-5.3297,-5.3323,-5.3328,-5.333,-5.334,-5.3341,-5.3582,-5.3583,0,0,-5.3064,-5.3074,-5.3132,-5.3147,-5.3135,-5.3129,-5.3136,-5.325,-5.3278,-5.3324,-5.3332,-5.3333,-5.3341,-5.3343,-5.358,-5.3582,0,0,0,-5.3052,-5.307,-5.3088,-5.3142,-5.316,-5.3132,-5.314,-5.3273,-5.3278,-5.3333,-5.3334,-5.3342,-5.3344,-5.3579,-5.3581,-5.3665,0,0,0,-5.3048,-5.3063,-5.3086,-5.3093,-5.3158,-5.3219,-5.3161,-5.327,-5.3283,-5.3334,-5.3342,-5.3346,-5.3577,-5.358,-5.3659,-5.3702,0,0,0,-5.3041,-5.3062,-5.3081,-5.3094,-5.314,-5.3216,-5.3228,-5.3273,-5.3284,-5.334,-5.3346,-5.3576,-5.3579,-5.3654,-5.3694,-5.3769,0,0,0,-5.3036,-5.3152,-5.3082,-5.3212,-5.3139,-5.3268,-5.3227,-5.3322,-5.338,-5.3343,-5.3577,-5.3581,-5.3652,-5.3688,-5.3764,-5.3835,-5.3866,0,0,-5.3188,-5.3171,-5.3246,-5.3187,-5.3332,-5.3251,-5.3407,-5.3449,-5.3443,-5.3535,-5.3541,-5.3661,-5.3693,-5.3768,-5.4034,-5.4059,0,0,0,-5.3297,-5.3352,-5.3388,-5.3445,-5.3482,-5.3516,-5.3533,-5.3548,-5.3627,-5.3493,-5.3708,-5.3727,-5.377,-5.3804,-5.3825,-5.3861,-5.3597,-5.3596,-5.3596,-5.3526,-5.3515,-5.3639,-5.3641,-5.3697,-5.3714,-5.3758,-5.3781,-5.3751,-5.3802,-5.3829,-5.3993,-5.4032,-5.4048,-5.4086,-5.3866,-5.3866,-5.3867,-5.3867,-5.3746,-5.3822,-5.3783,-5.3889,-5.3876,-5.3964,-5.3985,-5.3961,-5.404,-5.3971,-5.4008,-5.3934,-5.4075,-5.4108,-5.3873,-5.3872,-5.3871,-5.3871,-5.387,-5.3895,-5.3929,-5.3948,-5.4031,-5.4095,-5.4092,-5.417,-5.4155,-5.414,-5.4177,-5.4205,-5.4203,-5.42,-5.4192,-5.4192,-5.4193,-5.4193,-5.4194,-5.4194,-5.4041,-5.406,-5.413,-5.418,-5.4215,-5.4259,-5.4278,-5.4312,-5.4344,-5.4326,-5.4326,-5.4292,-5.4092,-5.4042,-5.4203,-5.4201,-5.42,-5.4199,-5.4199,-5.4269,-5.4216,-5.4323,-5.4359,-5.4417,-5.4482,-5.4461,-5.4531,-5.4556,-5.4595,-5.4553,-5.4408,-5.4388,-5.4371,-5.4329,-5.4555,-5.4555,-5.4555,-5.4555,-5.4394,-5.4384,-5.4491,-5.4549,-5.4604,-5.4598,-5.4718,-5.4734,-5.4741,-5.4756,-5.4721,-5.4665,-5.4648,-5.4638,-5.4616,-5.4577,-5.486,-5.486,-5.4861,-5.4534,-5.4528,-5.4635,-5.4645,-5.4689,-5.4726,-5.4839,-5.4905,-5.4902,-5.4873,-5.4767,-5.4754,-5.4663,-5.4634,-5.4601,-5.4567,-5.4495,0,0]}]]